Regional Weather Roundup
Issued by NWS Albany, NY

Home | Current Version | Previous Version | Text Only | Print | Product List | Glossary On
Versions: 1 2 3 4 5 6 7 8 9 10 11 12 13 14 15 16 17 18 19 20 21 22 23 24 25 26 27 28 29 30 31 32 33 34 35 36 37 38 39 40 41 42 43 44 45 46 47 48 49 50
595
ASUS41 KALY 192310
RWRALY

NEW YORK STATE HOURLY WEATHER ROUNDUP
NATIONAL WEATHER SERVICE ALBANY NY
700 PM EDT WED JUL 19 2017

NOTE: "FAIR" INDICATES FEW OR NO CLOUDS BELOW 12,000 FEET WITH NO
SIGNIFICANT WEATHER AND/OR NO OBSTRUCTIONS TO VISIBILITY.

NYZ032-033-038>043-046>054-057>066-NYZ062>081-082-084-200000-
EAST


CITY           SKY/WX    TMP DP  RH WIND       PRES   REMARKS
ALBANY         CLOUDY    84  62  47 W10       29.97S
GLENS FALLS    MOSUNNY   84  65  52 N5        29.94S
POUGHKEEPSIE   SUNNY     88  58  36 W7        29.94S
NEWBURGH       MOSUNNY   88  61  40 NW12      29.98S
MONTGOMERY     SUNNY     86  61  42 W6        29.97S
ISLIP          MOSUNNY   82  71  69 SW13      29.96F
NEW YORK CITY  MOSUNNY   93  66  40 W10       29.94S HX  96
CENTRAL PARK   MOSUNNY   89  65  44 MISG      29.98S HX  91
$$

NYZ005>009-017-018-044>046-055-056-200000-
CENTRAL


CITY           SKY/WX    TMP DP  RH WIND       PRES   REMARKS
FULTON         SUNNY     82  70  66 NW7       29.99R
SYRACUSE       PTSUNNY   83  67  58 W10       29.98S
ROME           PTSUNNY   83  66  56 W5        29.98F
ELMIRA         CLOUDY    86  68  54 NW5       29.99F
BINGHAMTON     SUNNY     81  64  56 NW3       30.05R
$$

NYZ026>034-041>043-087-200000-
NORTH


CITY           SKY/WX    TMP DP  RH WIND       PRES   REMARKS
WATERTOWN      PTSUNNY   79  63  57 SW8       29.97R
FORT DRUM      NOT AVBL
OGDENSBURG     FAIR      82  64  55 SW8       29.95R
MASSENA        CLOUDY    81  67  62 SW9       29.94R
SARANAC LAKE   PTSUNNY   76  65  68 W7        30.00S
PLATTSBURGH    CLOUDY    82  65  56 S5        29.91F
$$

NYZ001>004-010>016-019>021-085-200000-
WEST


CITY           SKY/WX    TMP DP  RH WIND       PRES   REMARKS
NIAGARA FALLS  SUNNY     85  68  56 SW10      29.99S
BUFFALO        MOSUNNY   80  68  66 SW14      30.00S
DUNKIRK        SUNNY     80  69  69 SW13      30.03R
JAMESTOWN      SUNNY     79  64  61 W10       30.08S
WELLSVILLE     SUNNY     81  64  56 W12       30.10F
ROCHESTER      MOSUNNY   85  66  53 W9        29.98S
PENN YAN       CLOUDY    85  64  49 VRB3      30.02F
$$

             KEY
       WCI = WIND CHILL INDEX
       VSB = VISIBILITY
       HX  = HEAT INDEX
$$




USA.gov is the U.S. government's official web portal to all federal, state and local government web resources and services.